Location: ????????
(55.6333°N, 37.7000°E)
Time: 05:51:31
(UTC+00:00)

Cosmos 1459 Rocket - Pass Details

Date: 19 May 2025
Orbit: 936 x 998 km, 83.0° (Epoch: 15 June)

Event Time Altitude Azimuth Distance (km) Brightness Sun altitude
Rises 21:09:03 0° 349° (N) 3,621 8.9 -14.3°
Reaches altitude 10° 21:11:35 10° 353° (N) 2,678 7.7 -14.3°
Maximum altitude 21:17:37 58° 73° (ENE) 1,103 4.4 -14.4°
Enters shadow 21:22:37 16° 150° (SSE) 2,309 5.5 -14.4°
